Weather History for Ely, MN

Change the Weather History Date:

Friday, March 1, 2013

  Actual Average Record
Temperature  
Mean Temperature 12 °F -  
Max Temperature 23 °F 23 °F 44 °F (1998)
Min Temperature 0 °F 4 °F -22 °F (2014)
Degree Days  
Heating Degree Days 54    
Moisture  
Dew Point -6 °F    
Average Humidity 48    
Maximum Humidity 78    
Minimum Humidity 24    
Precipitation  
Precipitation 0.00 in - - ()
Sea Level Pressure  
Sea Level Pressure 30.35 in    
Wind  
Wind Speed 4 mph (NNE)    
Max Wind Speed 8 mph    
Max Gust Speed -    
Visibility 10 miles    
Events      
Averages and records for this station are not official NWS values.
T = Trace of Precipitation, MM = Missing Value Source: NWS Daily Summary

Daily Weather History Graph

Daily Weather History Graph

Search for Another Location

Airport:

Trip Planner

Search our weather history database for the weather conditions in past years. The results will help you decide how hot, cold, wet, or windy it might be!

Date:

Astronomy

Mar. 01, 2013 Rise Set
Actual Time 6:47 AM CST 5:52 PM CST
Civil Twilight 6:16 AM CST 6:23 PM CST
Nautical Twilight 5:40 AM CST 6:59 PM CST
Astronomical Twilight 5:04 AM CST 7:35 PM CST
Moon 10:50 PM CST (3/1) 8:12 AM CST (3/1)
Length of Visible Light 12h 06m
Length of Day
11h 04m
Waning Gibbous, 83% of the Moon is Illuminated
Mar 1
Waning Gibbous
Mar 4
Last Quarter
Mar 11
New
Mar 19
First Quarter
Mar 27
Full

Hourly Weather History & Observations

Time (CST) Temp. Windchill Dew Point Humidity Pressure Visibility Wind Dir Wind Speed Gust Speed Precip Events Conditions
12:13 AM 12.2 °F 2.9 °F -0.4 °F 57% 30.29 in 10.0 mi NE 5.8 mph - N/A   Clear
12:33 AM 12.2 °F 2.9 °F -0.4 °F 57% 30.30 in 10.0 mi NE 5.8 mph - N/A   Clear
12:52 AM 12.2 °F 1.7 °F -0.4 °F 57% 30.30 in 10.0 mi NE 6.9 mph - N/A   Clear
1:13 AM 12.2 °F 0.7 °F -0.4 °F 57% 30.30 in 10.0 mi ENE 8.1 mph - N/A   Clear
1:33 AM 10.4 °F -1.5 °F -0.4 °F 62% 30.30 in 10.0 mi NE 8.1 mph - N/A   Clear
1:53 AM 10.4 °F 0.8 °F -0.4 °F 62% 30.30 in 10.0 mi NE 5.8 mph - N/A   Clear
2:13 AM 10.4 °F -0.4 °F -0.4 °F 62% 30.30 in 10.0 mi NE 6.9 mph - N/A   Clear
2:33 AM 10.4 °F 2.2 °F -0.4 °F 62% 30.31 in 10.0 mi NE 4.6 mph - N/A   Clear
2:52 AM 8.6 °F - -0.4 °F 67% 30.32 in 10.0 mi Calm Calm - N/A   Clear
3:13 AM 8.6 °F - -0.4 °F 67% 30.32 in 10.0 mi Calm Calm - N/A   Clear
3:33 AM 8.6 °F 2.0 °F -0.4 °F 67% 30.32 in 10.0 mi NNE 3.5 mph - N/A   Clear
3:52 AM 8.6 °F 0.1 °F -2.2 °F 62% 30.32 in 10.0 mi NE 4.6 mph - N/A   Clear
4:13 AM 6.8 °F -2.0 °F -2.2 °F 67% 30.33 in 10.0 mi NE 4.6 mph - N/A   Clear
4:33 AM 6.8 °F -2.0 °F -2.2 °F 67% 30.33 in 10.0 mi NE 4.6 mph - N/A   Clear
4:52 AM 6.8 °F - -2.2 °F 67% 30.34 in 10.0 mi Calm Calm - N/A   Clear
5:13 AM 5.0 °F - -2.2 °F 72% 30.35 in 10.0 mi Calm Calm - N/A   Clear
5:33 AM 5.0 °F -2.1 °F -2.2 °F 72% 30.35 in 10.0 mi NNE 3.5 mph - N/A   Clear
5:53 AM 3.2 °F - -2.2 °F 78% 30.35 in 10.0 mi Calm Calm - N/A   Clear
6:13 AM 3.2 °F - -5.8 °F 66% 30.36 in 10.0 mi Calm Calm - N/A   Clear
6:33 AM 3.2 °F - -4.0 °F 72% 30.36 in 10.0 mi Calm Calm - N/A   Clear
6:52 AM 3.2 °F - -4.0 °F 72% 30.36 in 10.0 mi Calm Calm - N/A   Clear
7:13 AM 3.2 °F -6.2 °F -5.8 °F 66% 30.37 in 10.0 mi NE 4.6 mph - N/A   Clear
7:33 AM 3.2 °F -4.2 °F -5.8 °F 66% 30.37 in 10.0 mi NE 3.5 mph - N/A   Clear
7:52 AM 3.2 °F -4.2 °F -5.8 °F 66% 30.38 in 10.0 mi NNE 3.5 mph - N/A   Clear
8:13 AM 3.2 °F -9.1 °F -7.6 °F 61% 30.38 in 10.0 mi NE 6.9 mph - N/A   Clear
8:33 AM 5.0 °F -5.6 °F -7.6 °F 56% 30.38 in 10.0 mi ENE 5.8 mph - N/A   Clear
8:52 AM 6.8 °F -0.1 °F -7.6 °F 52% 30.39 in 10.0 mi NNE 3.5 mph - N/A   Clear
9:13 AM 6.8 °F -0.1 °F -7.6 °F 52% 30.39 in 10.0 mi NNE 3.5 mph - N/A   Clear
9:33 AM 8.6 °F 0.1 °F -7.6 °F 48% 30.39 in 10.0 mi NNE 4.6 mph - N/A   Clear
9:52 AM 8.6 °F 2.0 °F -9.4 °F 44% 30.40 in 10.0 mi NNE 3.5 mph - N/A   Clear
10:13 AM 8.6 °F 2.0 °F -9.4 °F 44% 30.39 in 10.0 mi North 3.5 mph - N/A   Clear
10:32 AM 10.4 °F 2.2 °F -9.4 °F 41% 30.39 in 10.0 mi NNE 4.6 mph - N/A   Clear
10:53 AM 12.2 °F 4.3 °F -9.4 °F 38% 30.39 in 10.0 mi North 4.6 mph - N/A   Clear
11:13 AM 14.0 °F 8.2 °F -9.4 °F 35% 30.39 in 10.0 mi North 3.5 mph - N/A   Clear
11:32 AM 15.8 °F 5.1 °F -9.4 °F 32% 30.38 in 10.0 mi NNE 8.1 mph - N/A   Clear
11:53 AM 15.8 °F 6.1 °F -9.4 °F 32% 30.38 in 10.0 mi NNE 6.9 mph - N/A   Clear
12:13 PM 17.6 °F 9.3 °F -9.4 °F 30% 30.37 in 10.0 mi NNE 5.8 mph - N/A   Clear
12:32 PM 19.4 °F 12.8 °F -9.4 °F 28% 30.36 in 10.0 mi North 4.6 mph - N/A   Clear
12:53 PM 19.4 °F 11.5 °F -9.4 °F 28% 30.35 in 10.0 mi NE 5.8 mph - N/A   Clear
1:13 PM 21.2 °F 14.9 °F -9.4 °F 26% 30.35 in 10.0 mi North 4.6 mph - N/A   Clear
1:32 PM 21.2 °F 14.9 °F -9.4 °F 26% 30.35 in 10.0 mi North 4.6 mph - N/A   Clear
1:53 PM 21.2 °F 16.4 °F -9.4 °F 26% 30.35 in 10.0 mi North 3.5 mph - N/A   Clear
2:13 PM 21.2 °F 13.6 °F -11.2 °F 24% 30.34 in 10.0 mi NE 5.8 mph - N/A   Clear
2:32 PM 23.0 °F 14.7 °F -9.4 °F 24% 30.35 in 10.0 mi NNE 6.9 mph - N/A   Clear
2:53 PM 21.2 °F 13.6 °F -9.4 °F 26% 30.35 in 10.0 mi NNE 5.8 mph - N/A   Clear
3:13 PM 21.2 °F 13.6 °F -9.4 °F 26% 30.34 in 10.0 mi NNE 5.8 mph - N/A   Clear
3:32 PM 21.2 °F 12.6 °F -7.6 °F 28% 30.34 in 10.0 mi NNE 6.9 mph - N/A   Clear
3:53 PM 21.2 °F 12.6 °F -9.4 °F 26% 30.35 in 10.0 mi NNE 6.9 mph - N/A   Clear
4:13 PM 21.2 °F 12.6 °F -9.4 °F 26% 30.35 in 10.0 mi NNE 6.9 mph - N/A   Clear
4:33 PM 21.2 °F 12.6 °F -7.6 °F 28% 30.35 in 10.0 mi NNE 6.9 mph - N/A   Clear
4:53 PM 21.2 °F 14.9 °F -7.6 °F 28% 30.35 in 10.0 mi NNE 4.6 mph - N/A   Clear
5:13 PM 21.2 °F 16.4 °F -7.6 °F 28% 30.35 in 10.0 mi NNE 3.5 mph - N/A   Clear
5:32 PM 21.2 °F 14.9 °F -7.6 °F 28% 30.35 in 10.0 mi NNE 4.6 mph - N/A   Clear
5:53 PM 21.2 °F - -9.4 °F 26% 30.35 in 10.0 mi Calm Calm - N/A   Clear
6:13 PM 19.4 °F 14.3 °F -9.4 °F 28% 30.35 in 10.0 mi NE 3.5 mph - N/A   Clear
6:32 PM 19.4 °F - -7.6 °F 30% 30.35 in 10.0 mi Calm Calm - N/A   Clear
6:53 PM 17.6 °F - -7.6 °F 32% 30.36 in 10.0 mi Calm Calm - N/A   Clear
7:13 PM 17.6 °F - -7.6 °F 32% 30.36 in 10.0 mi Calm Calm - N/A   Clear
7:32 PM 15.8 °F - -7.6 °F 35% 30.36 in 10.0 mi Calm Calm - N/A   Clear
7:53 PM 15.8 °F - -7.6 °F 35% 30.36 in 10.0 mi Calm Calm - N/A   Clear
8:13 PM 12.2 °F - -7.6 °F 41% 30.35 in 10.0 mi Calm Calm - N/A   Clear
8:32 PM 12.2 °F - -7.6 °F 41% 30.35 in 10.0 mi Calm Calm - N/A   Clear
8:53 PM 10.4 °F - -7.6 °F 44% 30.34 in 10.0 mi Calm Calm - N/A   Clear
9:13 PM 6.8 °F - -7.6 °F 52% 30.35 in 10.0 mi Calm Calm - N/A   Clear
9:32 PM 5.0 °F - -7.6 °F 56% 30.34 in 10.0 mi Calm Calm - N/A   Clear
9:53 PM 3.2 °F - -7.6 °F 61% 30.34 in 10.0 mi Calm Calm - N/A   Clear
10:12 PM 1.4 °F - -7.6 °F 66% 30.34 in 10.0 mi Calm Calm - N/A   Clear
10:33 PM 3.2 °F - -7.6 °F 61% 30.34 in 10.0 mi Calm Calm - N/A   Clear
10:53 PM 1.4 °F -6.2 °F -9.4 °F 61% 30.33 in 10.0 mi NE 3.5 mph - N/A   Clear
11:12 PM 1.4 °F - -9.4 °F 61% 30.33 in 10.0 mi Calm Calm - N/A   Clear
11:33 PM -0.4 °F - -11.2 °F 60% 30.33 in 10.0 mi Calm Calm - N/A   Clear
11:53 PM -0.4 °F - -11.2 °F 60% 30.33 in 10.0 mi Calm Calm - N/A   Clear